Regional Weather Roundup
Issued by NWS

Home | Current Version | Previous Version | Text Only | Print | Product List | Glossary On
Versions: 1 2 3 4 5 6 7 8 9 10 11 12 13 14 15 16 17 18 19 20 21 22 23 24 25 26 27 28 29 30 31 32 33 34 35 36 37 38 39 40 41 42 43 44 45 46 47 48 49 50
000
ASUS43 KLMK 110802
RWRKY
KENTUCKY REGIONAL WEATHER ROUNDUP
NATIONAL WEATHER SERVICE LOUISVILLE KY
400 AM EDT FRI JUL 11 2014

NOTE "FAIR" INDICATES FEW OR NO CLOUDS BELOW 12,000 FEET
WITH NO SIGNIFICANT WEATHER AND/OR OBSTRUCTIONS TO VISIBILITY.

KYZ001>023-026-027-061>063-070>075-110900-
WESTERN AND SOUTH CENTRAL KENTUCKY

CITY           SKY/WX    TMP DP  RH WIND       PRES   REMARKS
PADUCAH        CLEAR     68  65  90 CALM      30.11S FOG
HENDERSON      CLEAR     63  59  88 CALM      30.12F
OWENSBORO      CLEAR     69  61  76 CALM      30.13F
HOPKINSVILLE   CLEAR     67  65  95 N2        30.12S
BOWLING GREEN  CLEAR     66  61  84 CALM      30.12F
GLASGOW        NOT AVBL
$$

KYZ024-025-028>034-038-045-046-053-110900-
NORTH CENTRAL KENTUCKY

CITY           SKY/WX    TMP DP  RH WIND       PRES   REMARKS
LOUISVILLE/SDF PTCLDY    68  60  75 N3        30.14F
LOUISVILLE/LOU CLEAR     67  59  75 CALM      30.15F
FORT KNOX      PTCLDY    65  60  84 N5        30.14S
$$

KYZ035>037-039>044-047>052-055>060-089>105-110900-
NORTHEAST KENTUCKY

CITY           SKY/WX    TMP DP  RH WIND       PRES   REMARKS
LEXINGTON      CLEAR     63  57  81 CALM      30.16S
COVINGTON      CLEAR     63  57  81 N5        30.17F
FRANKFORT      CLEAR     62  58  86 CALM      30.15S
$$

KYZ054-064>069-076>088-106>120-110900-
SOUTHEAST KENTUCKY

CITY           SKY/WX    TMP DP  RH WIND       PRES   REMARKS
JACKSON        CLEAR     68  60  75 CALM      30.16F
LONDON         CLEAR     66  62  87 CALM      30.15F
SOMERSET       CLEAR     63  63 100 CALM      30.14F
MIDDLESBORO    CLEAR     62  61  98 CALM      30.16S
MONTICELLO     SUNNY     61  60  96 CALM      30.15F FOG
$$



USA.gov is the U.S. government's official web portal to all federal, state and local government web resources and services.